Regional Weather Roundup
Issued by NWS

Home | Current Version | Previous Version | Graphics & Text | Print | Product List | Glossary On
Versions: 1 2 3 4 5 6 7 8 9 10 11 12 13 14 15 16 17 18 19 20 21 22 23 24 25 26 27 28 29 30 31 32 33 34 35 36 37 38 39 40 41 42 43 44 45 46 47 48 49 50
000
ASUS43 KIND 261600
RWRIN

WEATHER ROUNDUP FOR INDIANA
NATIONAL WEATHER SERVICE INDIANAPOLIS IN
1200 PM EDT FRI MAY 26 2017

NOTE: "FAIR" INDICATES FEW OR NO CLOUDS BELOW 12,000 FEET WITH NO
SIGNIFICANT WEATHER AND/OR OBSTRUCTIONS TO VISIBILITY.

* - STATION DOES NOT REPORT WEATHER SUCH AS PRECIPITATION OR FOG.

+ - STATION NOT QUALITY CONTROLLED BY THE NATIONAL WEATHER SERVICE.
    USE DATA WITH CAUTION...ESPECIALLY DEWPOINT AND RELATIVE
    HUMIDITY OBSERVATIONS.

INZ001>003-010>013-019-020-261700-
NORTHWEST INDIANA

CITY           SKY/WX    TMP DP  RH WIND       PRES   REMARKS
GARY /AIRPORT/ PTSUNNY   70  54  56 VRB3      29.87F
MICHIGAN CITY+ CLOUDY    68  54  60 CALM      29.89F
MONTICELLO +   MOSUNNY   68  56  65 SE3       29.88F
RENSSELAER +   MOSUNNY   70  55  60 E9        29.85F

$$

LMZ046-743>745-261700-
SOUTHERN LAKE MICHIGAN

STATION/POSITION TIME  TEMP    WIND        PRES    WAVE
                       AIR SEA DIR/SP/G            HT
                 (UTC) (F)     (DEG/KT/KT) (MB)    (FT)
BURNS HARBOR     1540   59      60/  7/  7 1012.5F
MICHIGAN CITY    1530   61     330/  2/  2   N/A
5NW MICH CITY    1550   56 54   40/  2/  4   N/A     1

$$

INZ004-005-014>016-021>024-261700-
NORTH CENTRAL INDIANA

CITY           SKY/WX    TMP DP  RH WIND       PRES   REMARKS
ELKHART        MOSUNNY   66  54  63 W7        29.89S
GOSHEN         SUNNY     66  54  65 SW8       29.89S
SOUTH BEND     CLOUDY    65  55  70 SW8       29.90S

$$

INZ006>009-017-018-025>027-261700-
NORTHEAST INDIANA

CITY           SKY/WX    TMP DP  RH WIND       PRES   REMARKS
FORT WAYNE     MOSUNNY   67  57  70 W12G22    29.91R
KENDALLVILLE + MOSUNNY   66  54  65 W7        29.90S

$$

INZ028-029-035-036-043>045-051>053-261700-
WEST CENTRAL INDIANA

CITY           SKY/WX    TMP DP  RH WIND       PRES   REMARKS
CRAWFORDSVL +  SUNNY     70  58  65 SE5       29.86F
GREENCASTLE +  CLOUDY    72  57  60 CALM      29.88F
LAFAYETTE      MOSUNNY   70  60  70 VRB6      29.85F
TERRE HAUTE    PTSUNNY   72  58  61 S8        29.85F

$$

INZ030>032-037>040-046>048-054>057-064-065-261700-
CENTRAL INDIANA

CITY           SKY/WX    TMP DP  RH WIND       PRES   REMARKS
ANDERSON       SUNNY     72  61  68 W7        29.92F
COLUMBUS       SUNNY     72  57  60 SW9       29.93S
INDIANAPOLIS   PTSUNNY   71  57  61 S6        29.89F
-EAGLE CREEK   SUNNY     72  56  57 CALM      29.89F
KOKOMO +       SUNNY     68  56  65 VRB3      29.92F
SHELBYVILLE    SUNNY     73  57  57 SW7       29.91F

$$

INZ033-034-041-042-049-050-058-059-261700-
EAST CENTRAL INDIANA

CITY           SKY/WX    TMP DP  RH WIND       PRES   REMARKS
MUNCIE         MOSUNNY   68  57  68 W6        29.92S
RICHMOND +     MOSUNNY   66  55  68 W13       29.95R

$$

INZ060-061-067>069-081>083-085>088-261700-
SOUTHWEST INDIANA

CITY           SKY/WX    TMP DP  RH WIND       PRES   REMARKS
EVANSVILLE     PTSUNNY   75  59  57 S13       29.86F
HUNTINGBURG *+ MOSUNNY   74  62  66 S7        29.90F

$$

INZ062-063-066-070>080-084-089>092-261700-
SOUTH CENTRAL AND SOUTHEAST INDIANA

CITY           SKY/WX    TMP DP  RH WIND       PRES   REMARKS
BLOOMINGTON    MOSUNNY   73  55  53 SW7       29.89F
MADISON *+     SUNNY     73  54  49 SW8       29.97S
SEYMOUR +      SUNNY     75  57  53 SW8       29.92F

$$





USA.gov is the U.S. government's official web portal to all federal, state and local government web resources and services.